This is the latest recevied weather packets stored in our database for station/object EA1HTW-13. If no packets are shown the sender has not sent any weather packets the latest 10 day(s).
| Time | Temp. | Humidity | Pressure | Rain* | Wind** | Luminosity | Snow |
|---|---|---|---|---|---|---|---|
| 1777758435 | 15.56° C | 83% | 1008.3 hPa | 0 mm | - | - | - |
| 1777757895 | 15.56° C | 83% | 1008.5 hPa | 0 mm | - | - | - |
| 1777757354 | 15.56° C | 83% | 1008.5 hPa | 0 mm | - | - | - |
| 1777756815 | 15.56° C | 84% | 1008.3 hPa | 0 mm | - | - | - |
| 1777756274 | 15.56° C | 84% | 1008.3 hPa | 0 mm | - | - | - |
| 1777755735 | 15.56° C | 84% | 1008.2 hPa | 0 mm | - | - | - |
| 1777755195 | 15.56° C | 84% | 1008.3 hPa | 0.25 mm | - | - | - |
| 1777754654 | 15.56° C | 84% | 1008.2 hPa | 0.25 mm | - | - | - |
| 1777754114 | 15.56° C | 84% | 1008 hPa | 0.51 mm | - | - | - |
| 1777753575 | 15.56° C | 85% | 1007.9 hPa | 6.1 mm | - | - | - |
| 1777753035 | 15.56° C | 85% | 1007.8 hPa | 8.64 mm | - | - | - |
| 1777752494 | 15.56° C | 84% | 1007.9 hPa | 8.64 mm | - | - | - |
| 1777751955 | 15.56° C | 83% | 1007.7 hPa | 8.64 mm | - | - | - |
| 1777751415 | 16.11° C | 81% | 1007.7 hPa | 8.38 mm | - | - | - |
| 1777750876 | 16.11° C | 79% | 1007.7 hPa | 8.38 mm | - | - | - |
| 1777750335 | 16.11° C | 76% | 1007.6 hPa | 7.87 mm | - | - | - |
| 1777749795 | 16.67° C | 74% | 1007.8 hPa | 0.25 mm | - | - | - |
| 1777749254 | 16.67° C | 72% | 1007.8 hPa | 0 mm | - | - | - |
| 1777748715 | 16.67° C | 71% | 1007.5 hPa | 0 mm | - | - | - |
| 1777748174 | 17.22° C | 71% | 1007.7 hPa | 0 mm | - | - | - |
| 1777747634 | 17.22° C | 71% | 1007.5 hPa | 0 mm | - | - | - |
| 1777747094 | 17.22° C | 71% | 1007.7 hPa | 0 mm | - | - | - |
| 1777746555 | 17.22° C | 71% | 1007.7 hPa | 0 mm | - | - | - |
| 1777746014 | 17.78° C | 67% | 1007.6 hPa | 0 mm | - | - | - |
| 1777745474 | 17.78° C | 66% | 1007.8 hPa | 0 mm | - | - | - |
* Rain latest hour (hover to see other rain measurements)
** Current wind speed in m/s (hover to see current wind gust speed)